Temperature
22 22 22 23 23 23 21 20 20 21 21 21 21 21 22 24 24 24 24 24 24 23 23 22 22 21 21 21 20 20 19 19 18 17 17 16 16 15 15 14 14 14 13 13
22 23 23 23 23 23 23 22 21 21 21 20 21 22 22 23 23 23 24 24 24 24 23 23 22 22 21 21 20 20 19 19 18 18 17 17 16 16 15 15 14 14 13 13
20 21 22 21 22 22 21 20 20 20 20 20 20 20 21 22 23 23 24 24 24 24 24 23 23 22 22 21 20 20 19 19 18 18 17 17 16 16 15 15 15 14 14 13
18 20 21 20 21 21 20 19 19 19 19 19 19 21 22 23 23 24 24 24 24 24 24 23 23 22 22 21 21 20 20 19 18 18 18 17 16 16 16 15 15 15 14 14
17 19 20 21 20 20 19 18 17 17 18 19 20 21 21 22 22 23 23 24 24 24 24 23 23 22 22 21 21 20 20 19 19 18 18 17 17 16 16 16 15 15 14 14
17 19 19 19 20 20 19 17 17 17 17 18 19 17 18 21 22 22 23 23 24 24 23 23 23 22 22 21 21 20 20 20 19 18 18 17 17 17 16 16 15 15 15 14
17 17 18 18 19 19 19 18 17 17 18 18 17 17 18 20 21 22 22 23 23 23 23 22 22 22 21 21 21 21 20 19 19 18 18 17 17 16 16 16 15 15 15 14
15 16 17 17 18 17 17 17 18 18 19 18 18 18 18 19 19 20 21 21 22 22 22 22 21 21 21 21 21 20 19 19 18 18 17 17 16 16 16 15 15 15 14 14
15 16 16 17 17 18 18 18 18 18 19 18 17 17 17 18 18 19 19 20 20 20 20 20 20 20 20 20 19 19 18 18 17 17 17 16 16 15 15 15 14 14 14 14
14 15 15 17 18 18 18 18 19 19 18 18 17 17 17 17 17 17 18 18 18 19 18 18 18 18 18 18 18 17 17 17 16 16 16 15 15 15 15 14 14 14 14 14
14 15 15 16 18 18 18 18 18 18 17 17 17 16 16 16 16 16 16 17 17 17 17 17 17 17 17 16 16 16 16 15 15 15 15 14 14 14 14 14 14 13 13 13
15 15 14 17 18 18 18 17 17 17 17 17 16 16 16 15 15 15 15 15 15 15 15 15 15 15 15 15 14 14 14 14 14 13 13 13 13 13 13 13 13 13 13 13
19 18 17 18 18 17 17 17 17 17 16 16 16 15 15 15 15 15 14 14 14 14 14 13 13 13 13 13 13 13 13 13 12 12 12 12 12 12 12 12 13 13 13 13
19 18 17 17 17 17 16 16 16 16 16 15 15 15 15 14 14 14 13 13 13 13 13 13 12 12 12 12 12 12 12 12 12 11 11 11 11 11 11 11 11 12 12 12
18 18 17 16 16 16 16 16 16 15 15 15 15 14 14 14 13 13 13 12 12 12 12 12 12 11 11 11 11 11 11 11 11 11 10 10 10 10 10 10 10 11 11 11
16 16 16 16 16 15 15 15 15 15 14 14 14 14 13 13 13 12 12 12 11 11 11 11 11 11 11 11 11 10 10 10 10 10 10 10 10 10 10 10 10 10 10 11
15 15 15 15 15 15 15 15 14 14 14 14 13 13 13 12 12 12 11 11 11 11 11 11 11 10 10 10 10 10 10 9 9 9 9 9 9 9 9 9 9 9 9 10
15 15 15 15 15 14 14 14 14 14 13 13 13 13 12 12 12 11 11 11 11 11 11 10 10 10 10 10 10 9 9 9 9 8 8 8 8 8 8 8 8 8 8 9
14 14 14 14 14 14 14 13 13 13 13 13 12 12 12 12 11 11 11 11 11 11 11 10 10 10 10 10 9 9 9 8 8 8 7 7 7 7 7 7 7 7 8 8
14 14 14 14 13 13 13 13 13 12 12 12 12 12 12 11 11 11 11 11 11 11 10 10 10 10 9 9 9 8 8 8 7 7 7 6 6 7 7 6 7 7 7 7
13 13 13 13 13 13 12 12 12 12 12 12 12 11 11 11 11 11 11 11 10 10 10 10 9 9 9 8 8 8 7 7 6 6 6 5 5 6 6 6 6 6 6 6
13 13 13 12 12 12 12 12 12 12 12 12 12 11 11 11 11 11 11 10 10 10 9 9 9 8 8 7 7 7 6 5 5 5 5 5 5 5 5 5 5 5 5 5
12 12 12 12 12 12 12 12 12 12 12 11 11 11 11 11 11 10 10 10 9 9 9 8 8 7 7 6 6 5 5 4 4 4 4 4 4 4 4 4 4 4 4 5
12 12 12 12 12 12 12 11 11 11 11 11 11 11 11 10 10 10 9 9 9 8 8 7 7 6 6 5 5 4 4 3 3 3 3 3 3 3 3 3 3 4 4 4
12 12 12 12 12 11 11 11 11 11 11 10 10 10 10 10 9 9 9 8 8 7 7 6 6 5 4 4 3 3 3 2 2 2 2 2 2 2 2 2 3 3 3 4
11 11 11 11 11 11 11 11 10 10 10 10 10 9 9 9 8 8 8 7 7 6 5 5 4 4 3 3 2 2 2 1 1 1 1 1 2 2 2 2 2 3 3 3
11 11 11 11 10 10 10 10 10 9 9 9 9 8 8 8 7 7 7 6 6 5 4 3 3 3 2 2 1 1 1 1 1 1 1 1 1 1 1 2 2 2 2 3
Wind_Speed
5 5 3 5 6 5 5 6 7 8 7 8 9 9 8 7 8 9 11 13 15 15 13 13 12 12 12 12 11 11 11 11 11 10 9 8 8 8 8 7 8 7 7 6
5 5 4 5 6 6 5 4 4 3 4 5 3 2 2 5 7 10 12 15 15 15 15 15 15 14 13 12 12 11 12 12 10 9 9 9 9 8 8 8 8 7 7 7
4 6 3 4 5 3 1 3 0 2 4 1 2 2 4 5 6 8 11 12 15 16 17 17 16 16 16 14 11 11 12 11 10 10 10 10 9 8 8 8 8 7 8 7
2 2 3 6 3 4 7 7 6 4 5 3 1 1 1 2 4 7 8 10 12 12 13 13 13 13 13 12 12 12 12 11 11 10 10 9 9 9 9 7 7 7 8 8
3 2 5 4 3 1 4 3 5 4 5 6 4 6 6 5 1 5 7 8 9 11 11 11 12 12 11 11 11 11 12 12 11 11 10 10 10 10 8 7 7 7 6 8
3 3 5 5 5 2 6 2 4 3 5 6 7 4 4 8 7 3 1 3 4 5 6 7 10 10 11 11 11 13 13 12 11 11 11 11 11 10 8 7 8 8 8 8
4 4 6 3 5 3 4 5 4 1 3 4 2 1 4 7 7 5 4 3 1 2 4 6 6 9 10 10 13 13 10 9 9 10 10 10 10 8 8 8 8 8 9 9
3 3 6 2 1 3 5 4 4 3 3 5 3 3 4 7 8 9 9 8 6 3 1 1 2 7 8 9 9 7 7 8 9 9 8 8 8 8 7 8 8 9 8 9
6 6 5 3 4 3 4 4 4 3 2 5 6 6 6 7 8 10 11 10 8 6 6 6 4 1 3 4 2 4 6 7 7 7 7 6 7 8 7 7 7 8 8 9
2 4 4 3 2 2 3 3 3 4 6 8 8 7 6 7 8 9 10 9 9 9 9 7 6 5 3 3 2 1 2 3 3 4 5 5 5 6 6 7 8 9 9 10
2 3 1 4 4 5 5 4 6 7 8 8 10 9 8 8 8 8 9 8 9 9 8 8 8 8 7 5 5 3 2 2 3 3 5 5 5 6 8 9 10 11 10 10
7 9 7 6 5 6 7 7 8 10 10 9 10 9 8 7 7 7 8 8 9 10 9 9 8 8 8 6 5 4 4 4 4 4 4 5 6 8 12 14 17 18 19 16
7 7 5 5 6 7 8 9 10 11 11 10 8 8 8 6 6 6 7 8 8 7 7 7 8 8 7 6 5 4 3 4 4 4 5 6 6 7 10 11 13 16 18 19
12 12 10 8 8 8 11 11 11 11 10 9 7 7 7 6 6 7 7 5 5 6 6 6 6 6 6 6 6 6 5 6 6 5 6 6 7 7 7 8 9 9 12 16
9 10 10 11 11 11 11 11 11 9 8 8 7 7 7 6 6 5 5 5 6 6 5 5 5 5 5 5 5 5 5 5 5 6 6 6 7 7 7 8 8 9 8 9
12 13 13 14 13 11 10 10 9 7 7 6 6 5 5 4 4 3 4 4 4 4 3 3 3 4 4 3 4 4 5 9 8 6 6 7 7 7 7 7 8 8 8 8
12 9 11 11 10 9 8 8 7 6 5 5 4 3 4 4 3 2 3 2 1 2 3 3 4 5 3 3 3 4 5 7 10 8 7 7 7 7 7 8 8 8 8 9
11 9 9 9 8 8 7 7 6 5 4 3 3 3 2 1 2 4 5 4 3 4 5 5 5 3 3 3 3 4 5 6 6 7 7 7 8 7 7 7 7 8 7 7
10 9 8 8 8 7 6 5 4 3 3 2 1 0 2 3 4 5 4 4 4 5 7 6 5 3 4 5 6 4 5 6 7 6 6 8 8 7 7 7 7 7 7 7
9 8 9 9 8 7 5 4 4 3 3 2 1 2 3 5 5 5 4 4 5 5 5 4 3 3 4 6 7 4 5 6 6 6 6 6 7 7 7 8 8 8 7 6
8 8 9 7 6 5 4 3 3 4 4 3 2 3 5 6 6 5 4 4 6 5 3 4 3 3 5 6 6 4 5 6 6 6 7 7 7 7 7 8 8 7 7 6
6 6 6 5 4 3 3 4 4 4 4 4 4 5 5 6 6 5 3 3 3 3 1 2 2 5 7 6 4 5 5 6 6 6 6 7 7 7 8 8 7 7 6 6
3 3 3 2 2 3 5 5 5 5 5 5 5 5 4 4 3 1 3 3 2 1 1 2 5 8 8 5 4 5 6 6 6 7 7 7 7 7 8 8 7 7 7 7
1 2 3 4 4 4 5 6 5 4 4 4 3 3 1 1 3 2 1 1 2 3 3 5 8 10 8 5 5 6 6 6 7 7 8 8 7 7 7 8 8 7 7 8
4 5 5 5 5 4 5 4 4 4 4 4 4 4 3 1 0 1 1 3 5 6 4 6 9 9 7 5 6 6 6 7 7 8 8 8 8 8 8 8 8 7 7 7
4 4 4 3 2 2 1 2 2 3 3 2 3 3 3 2 3 3 3 5 7 6 5 4 6 6 5 6 7 7 7 8 8 8 8 8 8 8 8 8 9 8 7 7
4 3 2 3 3 2 2 2 2 2 2 1 2 2 2 3 3 4 4 4 4 5 5 5 5 6 6 6 7 7 7 7 8 8 8 8 8 8 8 9 7 7 7 7
Wind_Direction
228 239 207 242 253 231 213 200 203 244 249 238 221 214 214 199 186 175 174 174 175 177 180 179 179 182 182 184 185 181 178 185 196 201 200 200 203 207 210 212 217 219 223 231
312 299 296 280 267 254 246 250 244 251 265 261 227 146 147 161 163 170 178 180 180 179 179 182 185 186 186 188 187 180 183 193 196 194 197 201 206 209 212 219 222 219 221 226
280 298 343 292 269 237 94 23 81 190 250 331 81 139 168 174 166 174 182 184 184 185 186 188 189 187 188 191 183 182 189 192 191 193 199 206 208 208 214 218 218 221 225 226
220 6 255 253 300 104 97 46 24 40 18 23 135 170 218 166 175 185 189 187 190 193 195 195 191 188 188 182 181 187 191 194 194 195 203 207 207 213 216 213 214 220 226 229
145 206 262 282 319 338 134 63 356 28 22 14 21 44 13 353 325 187 188 188 192 195 194 193 193 191 181 185 187 191 197 200 200 198 202 206 212 218 215 212 218 222 224 227
143 172 235 252 299 313 110 70 313 35 38 25 36 50 322 331 339 343 279 209 192 185 180 193 201 182 178 189 192 202 205 205 202 200 204 209 214 215 212 211 221 225 233 232
170 200 248 259 307 18 133 211 233 142 85 62 58 177 288 328 346 357 17 24 69 138 173 207 193 172 187 195 207 212 204 200 203 205 210 213 214 214 213 216 224 230 240 243
155 187 243 268 1 162 198 190 191 172 120 103 88 33 24 25 23 25 30 29 34 53 20 323 159 167 186 209 220 204 192 200 210 214 216 216 215 222 219 218 228 237 244 255
179 209 234 204 198 206 153 169 184 168 147 108 92 70 54 44 35 33 34 30 29 41 34 26 29 129 203 240 215 192 202 215 221 220 219 215 212 222 226 224 231 242 242 251
158 241 240 228 206 175 168 160 135 122 110 108 109 101 81 61 48 38 34 30 31 42 40 28 22 32 23 16 52 138 212 234 238 234 239 235 228 226 230 236 239 245 246 250
166 223 247 271 216 175 152 121 100 88 90 103 100 87 75 61 48 40 37 34 39 42 38 27 27 29 25 36 54 46 7 328 304 280 265 261 256 247 245 244 242 241 246 244
197 195 179 205 189 148 126 118 111 100 88 81 87 85 75 63 54 49 43 40 42 42 39 30 31 30 23 28 46 45 12 343 319 301 290 282 279 281 265 257 259 251 247 245
145 139 127 108 109 119 116 110 105 99 94 85 77 80 76 65 53 50 46 46 49 47 42 36 36 27 14 15 31 32 358 328 314 307 300 294 287 283 289 288 275 265 258 251
119 111 98 102 108 109 110 106 98 90 87 87 80 73 69 61 51 46 39 40 49 50 40 36 35 16 356 8 19 8 347 331 322 307 301 297 294 290 286 287 291 288 278 262
96 106 117 109 97 96 98 96 90 83 78 71 70 71 70 68 59 43 30 36 41 34 21 20 18 346 338 2 9 354 341 326 318 308 303 298 296 296 294 290 286 285 290 287
99 95 98 98 97 95 93 93 92 87 83 78 72 71 75 82 74 46 28 34 35 3 336 341 323 305 316 345 349 335 322 319 323 314 309 307 304 302 299 297 295 291 285 280
99 96 97 96 95 92 91 95 98 93 85 81 79 78 74 68 49 6 332 326 323 301 290 288 281 285 305 323 329 314 310 313 316 316 308 304 303 300 297 294 294 295 290 284
99 108 112 110 103 91 81 81 82 80 84 81 79 69 55 25 280 278 281 294 313 314 297 285 275 282 296 306 310 300 302 302 303 303 302 304 304 300 299 296 298 300 298 293
108 105 98 95 94 89 81 75 75 73 67 61 58 332 271 270 269 273 283 297 299 296 289 289 296 300 291 294 307 294 300 304 304 303 303 309 313 313 312 309 307 305 298 293
83 82 78 73 71 75 71 60 50 24 346 328 330 317 302 290 284 282 283 279 267 260 266 285 307 310 304 304 311 299 302 305 306 308 309 310 311 313 313 313 310 307 306 301
74 71 72 71 64 58 49 31 11 334 318 305 276 271 270 278 285 289 292 292 290 292 302 324 337 325 316 314 312 312 314 316 316 315 313 312 312 314 314 314 315 313 314 316
67 65 63 61 48 13 339 329 315 303 301 292 286 283 288 295 302 311 300 256 270 306 348 348 335 333 337 332 329 329 327 327 325 322 321 319 318 318 319 320 320 319 320 324
60 49 35 11 325 298 309 312 305 294 285 284 286 289 291 294 290 268 288 291 287 11 29 355 351 354 354 353 347 343 341 341 338 332 329 326 324 323 323 322 323 324 327 330
339 313 298 292 302 310 305 298 299 300 297 296 299 302 308 341 338 318 231 325 31 48 43 22 19 17 13 7 359 355 351 346 341 336 333 330 329 328 326 327 327 328 331 335
273 274 279 291 298 288 279 292 321 342 355 358 358 360 1 19 354 354 45 39 49 56 44 30 29 23 20 14 7 359 353 350 346 341 337 335 334 333 333 334 336 336 339 342
290 285 286 289 273 279 325 16 18 358 360 1 344 343 358 18 41 49 60 65 63 57 42 27 20 19 20 18 11 4 358 352 349 348 343 341 341 342 341 343 344 348 349 355
347 351 -0 5 1 18 35 39 25 1 351 347 330 339 9 30 49 61 67 65 59 49 39 31 28 26 23 20 13 6 0 356 353 350 348 348 350 349 349 349 351 354 359 3
Height
1496 1492 1492 1492 1490 1489 1495 1499 1505 1499 1492 1484 1479 1478 1478 1479 1481 1483 1486 1489 1492 1496 1499 1503 1506 1508 1511 1513 1515 1516 1517 1518 1519 1520 1520 1521 1521 1521 1521 1520 1520 1519 1518 1517
1494 1488 1489 1490 1486 1485 1487 1489 1490 1488 1487 1477 1475 1476 1477 1478 1479 1481 1483 1486 1489 1493 1496 1498 1501 1504 1506 1509 1510 1512 1513 1514 1515 1516 1516 1517 1517 1517 1517 1516 1516 1515 1514 1513
1504 1493 1491 1499 1489 1486 1488 1489 1488 1492 1487 1477 1477 1477 1477 1478 1478 1480 1481 1483 1486 1489 1491 1494 1497 1499 1502 1504 1506 1507 1508 1510 1511 1512 1512 1513 1513 1513 1512 1512 1512 1511 1509 1508
1505 1502 1509 1497 1482 1481 1487 1491 1487 1485 1482 1480 1478 1477 1477 1477 1478 1479 1481 1482 1484 1486 1488 1491 1493 1495 1498 1500 1501 1502 1504 1505 1506 1507 1507 1508 1508 1508 1508 1507 1507 1506 1505 1503
1509 1509 1502 1490 1483 1483 1487 1494 1489 1486 1483 1481 1478 1477 1479 1480 1480 1479 1480 1481 1482 1483 1485 1487 1489 1491 1493 1495 1496 1498 1499 1500 1501 1502 1503 1503 1503 1503 1503 1503 1502 1501 1500 1498
1506 1508 1508 1493 1482 1479 1484 1496 1488 1485 1483 1482 1481 1487 1487 1482 1481 1480 1480 1480 1480 1481 1482 1484 1486 1488 1489 1490 1491 1492 1493 1495 1496 1497 1497 1497 1498 1498 1498 1498 1497 1496 1495 1493
1503 1505 1497 1485 1481 1480 1495 1494 1486 1483 1483 1483 1485 1488 1487 1483 1481 1480 1480 1479 1479 1479 1480 1481 1482 1483 1484 1485 1486 1487 1489 1490 1491 1491 1492 1492 1493 1493 1492 1492 1491 1490 1489 1487
1502 1506 1500 1481 1481 1484 1485 1482 1482 1481 1481 1482 1485 1486 1485 1482 1480 1479 1479 1478 1478 1479 1479 1479 1479 1480 1480 1481 1482 1484 1485 1485 1486 1486 1487 1487 1487 1487 1487 1486 1485 1483 1482 1481
1490 1491 1481 1478 1477 1478 1479 1480 1480 1480 1481 1482 1484 1486 1485 1484 1482 1481 1480 1479 1479 1478 1478 1478 1478 1478 1478 1478 1479 1480 1481 1481 1482 1482 1482 1482 1482 1481 1480 1479 1478 1476 1475 1473
1484 1481 1477 1476 1477 1478 1479 1480 1480 1481 1482 1483 1485 1486 1486 1484 1483 1482 1481 1481 1480 1478 1477 1477 1477 1477 1476 1477 1477 1477 1477 1477 1477 1477 1477 1476 1475 1474 1474 1472 1471 1469 1468 1466
1481 1479 1478 1477 1476 1478 1480 1481 1482 1483 1484 1485 1485 1486 1486 1485 1485 1484 1483 1482 1481 1479 1478 1477 1476 1476 1475 1475 1474 1474 1474 1474 1473 1472 1471 1470 1469 1468 1466 1465 1464 1462 1460 1458
1474 1472 1474 1476 1477 1480 1481 1483 1483 1484 1485 1486 1487 1487 1487 1487 1487 1486 1485 1484 1482 1481 1479 1478 1477 1475 1474 1473 1473 1472 1471 1470 1469 1468 1466 1464 1463 1461 1459 1457 1455 1453 1452 1450
1462 1467 1470 1473 1477 1480 1482 1484 1485 1485 1486 1488 1489 1489 1489 1489 1488 1487 1486 1485 1484 1482 1480 1479 1477 1475 1474 1473 1471 1470 1469 1467 1465 1463 1461 1459 1456 1453 1450 1448 1446 1444 1442 1440
1462 1465 1470 1474 1478 1481 1484 1486 1487 1487 1488 1489 1490 1491 1491 1490 1489 1488 1487 1486 1484 1483 1481 1479 1477 1475 1473 1471 1469 1468 1466 1464 1461 1459 1456 1453 1450 1447 1444 1440 1437 1434 1433 1431
1466 1467 1471 1475 1479 1482 1484 1486 1488 1489 1490 1491 1491 1491 1491 1490 1489 1488 1487 1486 1484 1482 1479 1477 1475 1474 1472 1469 1467 1465 1462 1460 1457 1454 1451 1448 1444 1441 1437 1434 1430 1426 1424 1422
1470 1472 1475 1477 1481 1484 1486 1487 1488 1490 1491 1491 1491 1491 1490 1490 1489 1487 1486 1484 1482 1480 1478 1476 1474 1472 1470 1467 1464 1462 1459 1456 1452 1449 1445 1441 1438 1434 1430 1427 1423 1420 1417 1415
1473 1477 1479 1481 1483 1485 1487 1488 1489 1490 1491 1491 1491 1490 1489 1488 1487 1486 1484 1482 1481 1479 1476 1474 1472 1469 1467 1464 1461 1458 1454 1451 1448 1444 1440 1436 1432 1428 1424 1420 1416 1413 1410 1408
1478 1481 1482 1483 1485 1487 1488 1489 1490 1490 1490 1490 1489 1489 1488 1486 1485 1484 1482 1480 1478 1476 1474 1471 1469 1466 1463 1461 1457 1454 1450 1446 1442 1438 1434 1430 1426 1421 1417 1413 1410 1406 1403 1400
1482 1484 1485 1486 1487 1488 1489 1489 1490 1490 1489 1488 1487 1486 1485 1484 1482 1481 1479 1477 1475 1472 1470 1468 1465 1462 1460 1456 1453 1449 1444 1440 1436 1432 1428 1424 1420 1415 1411 1407 1404 1400 1397 1393
1485 1486 1487 1488 1488 1489 1489 1489 1489 1488 1487 1486 1485 1484 1482 1481 1479 1477 1475 1473 1471 1468 1466 1464 1461 1458 1455 1451 1447 1443 1439 1435 1430 1426 1422 1418 1414 1410 1406 1402 1398 1394 1390 1387
1487 1487 1488 1488 1489 1489 1489 1488 1487 1486 1485 1484 1482 1481 1479 1478 1476 1474 1471 1469 1467 1465 1462 1459 1456 1453 1449 1446 1442 1437 1433 1429 1424 1420 1416 1412 1408 1404 1400 1396 1392 1389 1385 1382
1489 1489 1489 1488 1488 1488 1487 1486 1485 1484 1482 1481 1479 1478 1476 1474 1472 1470 1468 1466 1463 1461 1458 1455 1452 1448 1444 1440 1436 1431 1427 1423 1419 1415 1411 1407 1403 1399 1395 1391 1387 1384 1381 1378
1489 1489 1488 1487 1487 1486 1484 1483 1482 1481 1479 1478 1476 1474 1473 1471 1469 1466 1464 1462 1459 1457 1454 1450 1446 1443 1439 1435 1430 1426 1422 1418 1413 1410 1406 1402 1398 1395 1391 1387 1384 1380 1378 1375
1488 1488 1487 1486 1484 1483 1482 1480 1479 1478 1476 1475 1473 1471 1469 1467 1465 1463 1461 1458 1455 1452 1449 1445 1441 1438 1434 1429 1425 1421 1417 1413 1409 1406 1402 1398 1394 1391 1387 1384 1381 1377 1374 1372
1486 1485 1484 1482 1481 1480 1478 1477 1476 1474 1473 1472 1470 1469 1466 1464 1462 1459 1457 1454 1451 1448 1444 1441 1437 1433 1429 1425 1421 1417 1414 1410 1406 1402 1399 1395 1391 1388 1384 1381 1378 1375 1372 1370
1483 1482 1481 1479 1478 1477 1476 1474 1473 1472 1471 1469 1467 1465 1463 1461 1458 1455 1453 1450 1447 1444 1440 1437 1434 1430 1426 1422 1419 1415 1411 1407 1404 1400 1396 1393 1389 1386 1383 1379 1377 1374 1372 1369
1481 1480 1478 1477 1476 1475 1473 1472 1471 1469 1468 1466 1464 1461 1459 1457 1454 1452 1449 1446 1443 1440 1437 1434 1431 1427 1424 1421 1417 1414 1410 1407 1403 1399 1396 1392 1389 1385 1382 1379 1377 1374 1372 1369